[[{"header":{"parameterUnit":"m.s-1","parameterCategory":1,"la1":30.2991,"la2":30.254,"lo1":-89.0895,"lo2":-89.0444,"dy":0.0017,"dx":0.0017,"nx":28,"ny":28,"refTime":"2025-12-19T03:00:00:Z","depth":0,"parameterNumber":2,"parameterNumberName":"U-component_of_WINDS"},"data":[0,0,0,0,0,0,0,0,0,0,0,0,0,0,0,0,0,0,0,0,0,0,0,0,0,0,0,0,0,0,0,0,0,0,0,0,0,0,0,0,0,0,0,0,0,0,0,0,0,0,0,0,0,0,0,0,0,0,0.3596,0.3595,0,0.3555,0.3554,0.3554,0.3496,0.3495,0.3494,0.3493,0.3452,0.3452,0.3452,0,0,0,0,0,0,0,0,0,0,0,0,0,0.3624,0.3624,0.3596,0.3595,0.3595,0.3555,0.3554,0.3554,0.3496,0.3495,0.3494,0.3493,0.3452,0.3452,0.3452,0,0,0,0,0,0,0,0,0,0,0,0,0,0.36,0.3624,0.3596,0.3561,0.3558,0.3555,0.3554,0.3554,0.3497,0.3495,0.3494,0.3492,0.3452,0.3452,0.3452,0.348,0,0,0.3451,0.3451,0,0,0,0,0,0,0,0,0.3602,0.3599,0.3567,0.3563,0.356,0.3529,0.3549,0.3529,0.3497,0.352,0.3493,0.3491,0.3479,0.3476,0.3472,0.3478,0.3476,0.3451,0.3451,0.3451,0.3451,0,0,0,0,0,0,0,0.3603,0.3601,0.3579,0.3566,0.3562,0.3548,0.3543,0.3545,0.3508,0.3518,0.3513,0.3509,0.3477,0.3473,0.3471,0.3476,0.3451,0.3451,0.3451,0.3451,0.3502,0.3504,0,0,0,0,0,0,0.361,0.3603,0.3581,0.3578,0.3577,0.3548,0.3543,0.354,0.3508,0.3502,0.3511,0.3507,0.3474,0.3471,0.3469,0.3499,0.3451,0.3451,0.345,0.3501,0.3503,0.3504,0,0,0,0,0,0,0.3611,0.3609,0.3582,0.3589,0.3585,0.3549,0.3547,0.354,0.3536,0.3503,0.3496,0.3513,0.3472,0.3469,0.3478,0.3497,0.345,0.345,0.3499,0.3501,0.3503,0.3561,0,0,0,0,0,0,0.3612,0.3609,0.362,0.359,0.3585,0.3592,0.3548,0.3541,0.3536,0.353,0.3503,0.3497,0.3471,0.3478,0.3477,0.3496,0.345,0.3497,0.35,0.3503,0.3557,0.3565,0.3572,0,0,0,0,0,0.3613,0.3638,0.3621,0.3618,0.3597,0.3593,0.359,0.3559,0.3537,0.3547,0.3526,0.3498,0.3495,0.348,0.3478,0.3497,0.3496,0.3499,0.3502,0.3554,0.3563,0.3571,0,0,0,0,0,0,0.3671,0.3633,0.3614,0.3629,0.3615,0.3583,0.3595,0.357,0.3562,0.3557,0.3519,0.3513,0.3526,0.3512,0.3496,0.3522,0.3491,0.3495,0.3531,0.354,0.3547,0.355,0.345,0,0,0,0,0,0.3686,0.3686,0.3653,0.367,0.3663,0.3631,0.3628,0.3605,0.3589,0.3582,0.3561,0.3547,0.3542,0.354,0.3534,0.3555,0.3548,0.3567,0.3574,0.358,0.3584,0.3593,0.3601,0.3515,0.3515,0.3515,0,0,0.3716,0.3696,0.3698,0.3681,0.3667,0.3668,0.3626,0.3629,0.3629,0.3583,0.3589,0.3573,0.3554,0.3568,0.3574,0.3557,0.3606,0.3585,0.359,0.359,0.3597,0.3605,0.3613,0.3518,0.3517,0.3517,0,0,0.3772,0.3756,0.3768,0.3755,0.3734,0.3712,0.3715,0.3687,0.3675,0.368,0.3646,0.3645,0.3639,0.3626,0.3619,0.367,0.3643,0.3669,0.3707,0.3716,0.3723,0.3729,0.3746,0.3753,0.3672,0.3672,0.3672,0,0.3812,0.3811,0.3778,0.3782,0.3776,0.3734,0.3746,0.3735,0.3713,0.371,0.3692,0.3682,0.3666,0.3677,0.3689,0.3685,0.3687,0.3672,0.3724,0.373,0.3735,0.3751,0.3758,0.3676,0.3675,0.3675,0.3675,0,0.3862,0.3862,0.3874,0.3854,0.3849,0.3858,0.3825,0.3824,0.3802,0.3782,0.3788,0.3767,0.3756,0.3757,0.3736,0.3765,0.3755,0.3731,0.3699,0.3747,0.3761,0.3767,0.368,0.3679,0.3678,0.3677,0,0,0.3952,0.3913,0.3918,0.3909,0.3882,0.3882,0.3889,0.3877,0.3877,0.3864,0.3868,0.3863,0.3841,0.3833,0.381,0.3818,0.3859,0.3793,0.3792,0.3805,0.3888,0.3906,0.3914,0.3841,0.3842,0.3843,0.389,0,0.4002,0.4011,0.398,0.3997,0.3996,0.3956,0.3962,0.3947,0.3928,0.3925,0.3904,0.3901,0.3872,0.3867,0.3874,0.3852,0.3875,0.3848,0.3844,0.3845,0.385,0.3922,0.394,0.3986,0.3895,0.3896,0.3897,0,0.4061,0.4051,0.4067,0.404,0.4038,0.4044,0.4031,0.4029,0.401,0.3996,0.3987,0.396,0.3964,0.3934,0.3939,0.3922,0.3919,0.3908,0.3909,0.3907,0.3874,0.3921,0.3999,0.4006,0.3906,0.3905,0.3904,0,0.4125,0.4115,0.4123,0.4116,0.4085,0.4089,0.4076,0.4057,0.4052,0.4041,0.4037,0.4027,0.4021,0.4014,0.3985,0.3966,0.3993,0.3961,0.3981,0.3982,0.3989,0.3989,0.4067,0.3988,0.3987,0.3987,0.3987,0,0.4184,0.4195,0.4151,0.4157,0.4168,0.4133,0.4146,0.4129,0.4111,0.4112,0.4078,0.4079,0.4041,0.4038,0.4016,0.4023,0.4021,0.4009,0.4003,0.4012,0.4014,0.4009,0.4005,0.3989,0.3989,0.3988,0.3988,0,0.4257,0.4228,0.4234,0.4204,0.4196,0.4206,0.418,0.4183,0.4163,0.4164,0.4163,0.413,0.4125,0.4095,0.4084,0.4068,0.4084,0.4072,0.409,0.4086,0.4108,0.4106,0.4186,0.4194,0.411,0.4111,0.4112,0,0.4296,0.4304,0.4274,0.4272,0.426,0.4258,0.4253,0.4219,0.4215,0.4194,0.42,0.4192,0.4184,0.4178,0.4154,0.4144,0.4131,0.416,0.413,0.4139,0.4131,0.4131,0.4131,0.4166,0.4167,0.4168,0.4169,0,0.4368,0.4353,0.4347,0.4336,0.4331,0.432,0.4308,0.4308,0.4271,0.4268,0.4262,0.4256,0.4244,0.4237,0.4223,0.421,0.4183,0.4179,0.4183,0.4192,0.4202,0.4197,0.4107,0.4177,0.4176,0.4176,0.4175,0.4175,0.4424,0.4429,0.4409,0.4403,0.439,0.4379,0.4381,0.436,0.4355,0.4342,0.4323,0.432,0.4301,0.428,0.4269,0.4266,0.425,0.4257,0.4258,0.426,0.4265,0.4203,0.4263,0.4263,0.4263,0.4263,0.4262,0,0.4494,0.4479,0.4474,0.4457,0.4453,0.4428,0.4413,0.4411,0.4409,0.4393,0.4386,0.438,0.4372,0.4347,0.4337,0.434,0.4327,0.4338,0.4337,0.4334,0.4279,0.4276,0.4348,0.4348,0.4348,0.4348,0.4348,0.4348,0.4529,0.4536,0.4519,0.4519,0.4504,0.4501,0.4494,0.4484,0.4471,0.4466,0.4459,0.4443,0.4423,0.4412,0.4404,0.4396,0.4394,0.4409,0.4398,0.4347,0.4338,0.433,0.4327,0.4409,0.4409,0.4453,0.4453,0.4453]},{"header":{"parameterUnit":"m.s-1","parameterCategory":1,"la1":30.2991,"la2":30.254,"lo1":-89.0895,"lo2":-89.0444,"dy":0.0017,"dx":0.0017,"nx":28,"ny":28,"refTime":"2025-12-19T03:00:00:Z","depth":0,"parameterNumber":3,"parameterNumberName":"V-component_of_WINDS"},"data":[0,0,0,0,0,0,0,0,0,0,0,0,0,0,0,0,0,0,0,0,0,0,0,0,0,0,0,0,0,0,0,0,0,0,0,0,0,0,0,0,0,0,0,0,0,0,0,0,0,0,0,0,0,0,0,0,0,0,3.978,3.978,0,3.9849,3.985,3.9851,3.9858,3.9857,3.9856,3.9856,3.9922,3.9925,3.9927,0,0,0,0,0,0,0,0,0,0,0,0,0,3.9649,3.9652,3.9779,3.978,3.9781,3.9849,3.985,3.9851,3.9858,3.9857,3.9856,3.9855,3.9921,3.9924,3.9927,0,0,0,0,0,0,0,0,0,0,0,0,0,3.9711,3.9652,3.9779,3.9793,3.9795,3.9849,3.985,3.9851,3.9858,3.9857,3.9856,3.9855,3.992,3.9924,3.9928,3.9971,0,0,3.9939,3.994,0,0,0,0,0,0,0,0,3.9707,3.9716,3.979,3.9792,3.9794,3.9844,3.9828,3.9891,3.9858,3.9834,3.9855,3.9854,3.9897,3.9902,3.9917,3.9974,3.9977,3.9939,3.9941,3.9943,3.9944,0,0,0,0,0,0,0,3.9703,3.9713,3.9807,3.9791,3.9794,3.9794,3.9802,3.984,3.987,3.9836,3.9837,3.9845,3.9898,3.9914,3.9919,3.9978,3.9939,3.9942,3.9944,3.9946,4.0076,4.0078,0,0,0,0,0,0,3.9697,3.9709,3.9805,3.9809,3.9748,3.9798,3.9806,3.9829,3.987,3.9875,3.9846,3.9845,3.9908,3.9915,3.9921,3.9976,3.9943,3.9946,3.9948,4.0075,4.0077,4.0078,0,0,0,0,0,0,3.9694,3.9705,3.9802,3.9759,3.9772,3.9801,3.9826,3.9831,3.9847,3.9877,3.9882,3.9857,3.9908,3.9916,3.996,3.9979,3.9948,3.9951,4.0074,4.0076,4.0077,4.0086,0,0,0,0,0,0,3.969,3.9704,3.9722,3.976,3.9774,3.984,3.9828,3.9833,3.9854,3.9854,3.9889,3.9894,3.9907,3.9954,3.9963,3.9983,3.9954,4.0072,4.0074,4.0077,4.0084,4.0088,4.0091,0,0,0,0,0,3.9686,3.972,3.9723,3.9734,3.9797,3.9841,3.9849,3.9865,3.9855,3.9873,3.9893,3.9893,3.9975,3.9958,3.9969,3.999,4.0071,4.0074,4.0076,4.0082,4.0087,4.0091,0,0,0,0,0,0,3.9681,3.9725,3.9728,3.9776,3.9805,3.9842,3.9864,3.9869,3.9899,3.9897,3.9914,3.9922,3.9965,3.9982,3.9962,4.0035,4.0022,4.0027,4.0023,4.0027,4.0031,4.0026,3.9957,0,0,0,0,0,3.9686,3.972,3.9756,3.9794,3.9809,3.9834,3.9854,3.9864,3.9894,3.9905,3.9928,3.9956,3.9988,4.0009,4.004,4.0087,4.0095,4.0106,4.011,4.0113,4.0117,4.0144,4.015,4.0087,4.0087,4.0087,0,0,3.9696,3.9724,3.9744,3.9794,3.9818,3.9851,3.9844,3.9879,3.9904,3.991,3.9953,3.9971,4.0003,4.0049,4.007,4.0064,4.0136,4.0116,4.0118,4.0121,4.0147,4.0153,4.0158,4.0089,4.0089,4.0089,0,0,3.9731,3.9756,3.9792,3.9816,3.9852,3.9869,3.9878,3.9915,3.9928,3.9972,3.9977,4.0006,4.0061,4.0085,4.0103,4.015,4.0152,4.016,4.0178,4.0204,4.0209,4.0213,4.0231,4.0236,4.0164,4.0164,4.0164,0,3.9738,3.979,3.9809,3.9845,3.9867,3.9877,3.9913,3.9935,3.9979,3.9993,3.9987,4.0057,4.0079,4.0131,4.0143,4.0158,4.0168,4.0155,4.0207,4.0212,4.0216,4.0233,4.0239,4.0164,4.0164,4.0164,4.0164,0,3.9797,3.9833,3.9858,3.9903,3.9928,3.9963,3.9987,4.001,4.0018,4.0036,4.0081,4.0108,4.0146,4.0159,4.0166,4.0212,4.0208,4.0204,4.0191,4.0222,4.0238,4.0245,4.0165,4.0165,4.0165,4.0165,0,0,3.983,3.9887,3.9895,3.9916,3.9958,3.9986,4.0022,4.0061,4.0081,4.0111,4.0142,4.019,4.0187,4.0209,4.0219,4.0242,4.0279,4.0236,4.0237,4.0243,4.0332,4.0334,4.0341,4.0281,4.0282,4.0283,4.0329,0,3.987,3.9937,3.9955,4.0011,4.0045,4.0056,4.0087,4.0116,4.0134,4.0165,4.0184,4.0218,4.0212,4.0225,4.0249,4.0269,4.0297,4.0266,4.0309,4.031,4.03,4.0349,4.0352,4.0394,4.0335,4.0336,4.0337,0,3.9925,3.9959,4.0019,4.0059,4.0074,4.0102,4.014,4.0169,4.0202,4.0214,4.0239,4.0248,4.0287,4.0272,4.0325,4.0304,4.0323,4.0336,4.0338,4.0342,4.0325,4.0355,4.0408,4.0414,4.0347,4.0346,4.0345,0,3.9943,4.0004,4.0048,4.0066,4.0113,4.0133,4.0153,4.0185,4.0208,4.0241,4.0256,4.0292,4.0312,4.034,4.0358,4.0346,4.041,4.0397,4.042,4.042,4.0432,4.0431,4.0489,4.0445,4.0444,4.0444,4.0444,0,3.9985,4.0022,4.0057,4.0084,4.0125,4.0147,4.0187,4.0207,4.0236,4.0267,4.0278,4.0306,4.033,4.0361,4.0376,4.0418,4.0426,4.0437,4.044,4.0436,4.0434,4.0447,4.0445,4.0446,4.0446,4.0445,4.0445,0,4.0012,4.0037,4.0086,4.0128,4.0139,4.0168,4.0203,4.023,4.0249,4.0288,4.0298,4.0328,4.0366,4.0388,4.0435,4.0445,4.0492,4.0494,4.0481,4.0483,4.0505,4.0502,4.0573,4.0583,4.0532,4.0533,4.0533,0,4.0037,4.0066,4.0112,4.0134,4.0155,4.0191,4.0215,4.0237,4.0262,4.0303,4.0325,4.0364,4.0397,4.0457,4.0482,4.0519,4.0522,4.0544,4.0527,4.0522,4.0522,4.052,4.0523,4.0546,4.0547,4.0547,4.0547,0,4.0079,4.0091,4.0126,4.0167,4.0196,4.0228,4.026,4.0277,4.0305,4.0332,4.0372,4.0397,4.0447,4.0486,4.0525,4.0545,4.0551,4.0553,4.056,4.0556,4.0547,4.0553,4.0489,4.0551,4.0551,4.055,4.055,4.055,4.0106,4.0133,4.017,4.0209,4.0236,4.0266,4.0294,4.0318,4.0352,4.0396,4.0407,4.0449,4.0483,4.0537,4.0558,4.0591,4.0587,4.0597,4.06,4.0602,4.0603,4.0543,4.0598,4.0598,4.0598,4.0598,4.0598,0,4.0149,4.0174,4.021,4.0256,4.0287,4.0292,4.0328,4.0353,4.0391,4.0423,4.0456,4.0502,4.0541,4.057,4.061,4.063,4.0634,4.064,4.0638,4.0643,4.0604,4.0594,4.0636,4.0636,4.0636,4.0636,4.0636,4.0636,4.0175,4.0221,4.0237,4.0297,4.0321,4.0364,4.0384,4.0412,4.0438,4.0491,4.0523,4.0543,4.0574,4.0616,4.0652,4.066,4.0673,4.0679,4.0687,4.065,4.0646,4.0642,4.0632,4.0682,4.0682,4.0723,4.0723,4.0724]}]]